Change the Weather History Date:

Monday, January 14, 2013

  Actual Average Record
Temperature  
Mean Temperature 43 °F 53 °F  
Max Temperature 45 °F 63 °F 82 °F (1971)
Min Temperature 40 °F 43 °F 19 °F (1982)
Degree Days  
Heating Degree Days 22 13  
Month to date heating degree days 167 182  
Since 1 July heating degree days 591 721  
Moisture  
Dew Point 38 °F    
Average Humidity 85    
Maximum Humidity 100    
Minimum Humidity 70    
Precipitation  
Precipitation 0.03 in 0.11 in 1.45 in (1941)
Month to date precipitation 3.03 1.47  
Year to date precipitation 3.03 1.47  
Sea Level Pressure  
Sea Level Pressure 30.14 in    
Wind  
Wind Speed 14 mph (NNE)    
Max Wind Speed 22 mph    
Max Gust Speed 29 mph    
Visibility 10 miles    
Events Rain    
T = Trace of Precipitation, MM = Missing Value Source: NWS Daily Summary

Daily Weather History Graph

Daily Weather History Graph

Search for Another Location

Airport or City:

Trip Planner

Search our weather history database for the weather conditions in past years. The results will help you decide how hot, cold, wet, or windy it might be!

Date:

Astronomy

Jan. 14, 2013 Rise Set
Actual Time 7:17 AM CST 5:43 PM CST
Civil Twilight 6:51 AM CST 6:09 PM CST
Nautical Twilight 6:22 AM CST 6:38 PM CST
Astronomical Twilight 5:53 AM CST 7:07 PM CST
Moon 9:08 AM CST (1/14) 9:10 PM CST (1/14)
Length of Visible Light 11h 18m
Length of Day
10h 26m
Waxing Crescent, 11% of the Moon is Illuminated
Jan 14
Waxing Crescent
Jan 18
First Quarter
Jan 26
Full
Feb 3
Last Quarter
Feb 10
New

Hourly Weather History & Observations

Time (CST) Temp. Windchill Dew Point Humidity Pressure Visibility Wind Dir Wind Speed Gust Speed Precip Events Conditions
12:53 AM 46.4 °F 39.2 °F 37.4 °F 71% 30.11 in 10.0 mi NNE 18.4 mph - N/A   Overcast
1:53 AM 46.0 °F 38.8 °F 37.0 °F 71% 30.11 in 10.0 mi NNE 18.4 mph 21.9 mph N/A   Overcast
2:53 AM 45.0 °F 37.9 °F 37.9 °F 76% 30.09 in 10.0 mi NNE 16.1 mph - N/A   Overcast
3:53 AM 45.0 °F 39.3 °F 39.0 °F 80% 30.09 in 10.0 mi North 11.5 mph - N/A   Overcast
4:53 AM 46.0 °F 41.0 °F 39.0 °F 76% 30.11 in 10.0 mi North 10.4 mph - N/A   Overcast
5:53 AM 44.6 °F 38.1 °F 39.2 °F 81% 30.11 in 8.0 mi NNW 13.8 mph - N/A Rain Light Rain
6:36 AM 42.8 °F 37.0 °F 39.2 °F 87% 30.12 in 7.0 mi North 10.4 mph - 0.00 in Rain Light Rain
6:53 AM 43.0 °F 36.8 °F 39.9 °F 89% 30.16 in 6.0 mi NNW 11.5 mph - 0.01 in Rain Light Rain
7:29 AM 42.8 °F 36.2 °F 39.2 °F 87% 30.15 in 10.0 mi NNW 12.7 mph - 0.00 in   Overcast
7:53 AM 42.1 °F 36.1 °F 39.0 °F 89% 30.19 in 9.0 mi NNW 10.4 mph - 0.00 in   Overcast
8:53 AM 42.1 °F 34.9 °F 39.0 °F 89% 30.21 in 10.0 mi North 13.8 mph - 0.00 in   Overcast
9:53 AM 43.0 °F 35.7 °F 39.0 °F 86% 30.23 in 10.0 mi North 15.0 mph - N/A   Overcast
10:53 AM 43.0 °F 34.8 °F 37.9 °F 82% 30.21 in 10.0 mi North 18.4 mph - 0.00 in   Overcast
11:53 AM 44.1 °F 36.5 °F 37.9 °F 79% 30.18 in 10.0 mi NE 17.3 mph - N/A   Overcast
12:23 PM 44.6 °F 37.2 °F 37.4 °F 76% 30.15 in 10.0 mi NNE 17.3 mph 24.2 mph N/A   Overcast
12:53 PM 45.0 °F 37.9 °F 37.0 °F 74% 30.15 in 10.0 mi NNE 16.1 mph - N/A   Overcast
1:53 PM 48.0 °F - 37.9 °F 68% 30.14 in 10.0 mi North 12.7 mph - N/A   Overcast
2:53 PM 46.9 °F - 37.9 °F 71% 30.14 in 10.0 mi NNE 12.7 mph - N/A   Overcast
3:53 PM 46.4 °F 41.1 °F 37.4 °F 71% 30.13 in 10.0 mi North 11.5 mph - N/A   Overcast
4:53 PM 45.0 °F 40.1 °F 37.9 °F 76% 30.15 in 10.0 mi North 9.2 mph - N/A   Overcast
5:53 PM 45.0 °F 39.3 °F 37.9 °F 76% 30.16 in 10.0 mi NNE 11.5 mph - N/A   Overcast
6:53 PM 45.0 °F 38.5 °F 37.9 °F 76% 30.17 in 10.0 mi NNE 13.8 mph - N/A   Overcast
7:53 PM 45.0 °F 38.9 °F 37.9 °F 76% 30.15 in 10.0 mi NNE 12.7 mph - N/A   Overcast
8:53 PM 44.1 °F 38.6 °F 37.9 °F 79% 30.14 in 10.0 mi NNE 10.4 mph - N/A   Overcast
9:53 PM 44.1 °F 38.6 °F 37.0 °F 76% 30.13 in 10.0 mi NE 10.4 mph - N/A   Overcast
10:41 PM 44.6 °F 38.8 °F 37.4 °F 76% 30.11 in 10.0 mi NE 11.5 mph 18.4 mph N/A   Overcast
10:53 PM 44.1 °F 38.1 °F 37.0 °F 76% 30.13 in 10.0 mi NNE 11.5 mph - N/A   Overcast
11:07 PM 44.6 °F 40.2 °F 37.4 °F 76% 30.11 in 10.0 mi NE 8.1 mph - N/A   Overcast
11:53 PM 44.1 °F 38.1 °F 37.0 °F 76% 30.12 in 10.0 mi NE 11.5 mph - N/A   Overcast